When you browse on this site, cookies collect data to enhance your experience and personalize the content and advertising you see.
Visit our Privacy Policy to learn more. By continuing to use the site, you agree to this use of cookies and data.
  • In Austria
  • List of Countries
  • For 7 days
  • Water Temperature
  • Satellite Maps
  • Weather Map
  • News
  • Weather Widgets
  • user-avatar
    Login

    Hourly Weather Osaka

    Today, 21 July, Sunday

    Time Temperature Precipitation Wind Pressure Humidity
    00:00 +29°C° 0 mm 1 mps 760 mmHg 77%
    01:00 +29°C° 0 mm 2 mps 759 mmHg 78%
    02:00 +29°C° 0 mm 2 mps 759 mmHg 79%
    03:00 +28°C° 0 mm 2 mps 759 mmHg 79%
    04:00 +28°C° 0 mm 1 mps 759 mmHg 79%
    05:00 +28°C° 0 mm 1 mps 759 mmHg 79%
    06:00 +28°C° 0 mm 1 mps 759 mmHg 79%
    07:00 +29°C° 0 mm 1 mps 759 mmHg 73%
    08:00 +30°C° 0 mm 2 mps 759 mmHg 68%
    09:00 +32°C° 0 mm 2 mps 759 mmHg 62%
    10:00 +34°C° 0 mm 3 mps 759 mmHg 58%
    11:00 +35°C° 0 mm 4 mps 759 mmHg 53%
    12:00 +36°C° 0 mm 5 mps 759 mmHg 49%
    13:00 +36°C° 0 mm 6 mps 759 mmHg 51%
    14:00 +35°C° 0 mm 6 mps 758 mmHg 53%
    15:00 +35°C° 0 mm 4 mps 758 mmHg 53%
    16:00 +34°C° 0 mm 4 mps 758 mmHg 55%
    17:00 +34°C° 0 mm 4 mps 758 mmHg 57%
    18:00 +34°C° 0 mm 4 mps 758 mmHg 58%
    19:00 +33°C° 0 mm 4 mps 758 mmHg 61%
    20:00 +32°C° 0 mm 4 mps 758 mmHg 64%
    21:00 +31°C° 0 mm 3 mps 758 mmHg 66%
    22:00 +30°C° 0 mm 3 mps 758 mmHg 68%
    23:00 +30°C° 0 mm 3 mps 758 mmHg 69%

    Tomorrow, 22 July, Monday

    Time Temperature Precipitation Wind Pressure Humidity
    00:00 +30°C° 0 mm 3 mps 758 mmHg 70%
    01:00 +29°C° 0.2 mm 3 mps 758 mmHg 72%
    02:00 +29°C° 0.2 mm 2 mps 758 mmHg 74%
    03:00 +28°C° 0.2 mm 2 mps 757 mmHg 76%
    04:00 +28°C° 0.4 mm 2 mps 757 mmHg 76%
    05:00 +28°C° 0.4 mm 2 mps 757 mmHg 75%
    06:00 +28°C° 0.4 mm 2 mps 757 mmHg 75%
    07:00 +28°C° 1.9 mm 2 mps 757 mmHg 78%
    08:00 +28°C° 1.9 mm 2 mps 757 mmHg 82%
    09:00 +27°C° 1.9 mm 2 mps 757 mmHg 85%
    10:00 +29°C° 1.1 mm 2 mps 757 mmHg 78%
    11:00 +30°C° 1.1 mm 2 mps 757 mmHg 71%
    12:00 +32°C° 1.1 mm 2 mps 757 mmHg 64%
    13:00 +33°C° 0.2 mm 3 mps 757 mmHg 60%
    14:00 +34°C° 0.2 mm 3 mps 756 mmHg 57%
    15:00 +35°C° 0.2 mm 4 mps 756 mmHg 54%
    16:00 +34°C° 0.4 mm 4 mps 756 mmHg 57%
    17:00 +33°C° 0.4 mm 4 mps 756 mmHg 61%
    18:00 +33°C° 0.4 mm 4 mps 755 mmHg 64%
    19:00 +30°C° 5.1 mm 3 mps 756 mmHg 71%
    20:00 +29°C° 5.1 mm 2 mps 756 mmHg 79%
    21:00 +28°C° 5.1 mm 2 mps 756 mmHg 86%
    22:00 +28°C° 0.9 mm 1 mps 756 mmHg 84%
    23:00 +28°C° 0.9 mm 1 mps 756 mmHg 82%

    Day after tomorrow, 23 July, Tuesday

    Time Temperature Precipitation Wind Pressure Humidity
    00:00 +28°C° 0.9 mm 1 mps 755 mmHg 80%
    01:00 +26°C° 0 mm 0 mps 755 mmHg 80%
    02:00 +26°C° 0 mm 0 mps 755 mmHg 80%
    03:00 +26°C° 0 mm 0 mps 755 mmHg 80%
    04:00 +26°C° 0.1 mm 0 mps 755 mmHg 80%
    05:00 +26°C° 0.1 mm 0 mps 755 mmHg 81%
    06:00 +28°C° 0.1 mm 1 mps 755 mmHg 81%
    07:00 +29°C° 0.3 mm 1 mps 755 mmHg 76%
    08:00 +30°C° 0.3 mm 1 mps 755 mmHg 71%
    09:00 +31°C° 0.3 mm 2 mps 755 mmHg 66%
    10:00 +32°C° 0.1 mm 2 mps 755 mmHg 62%
    11:00 +34°C° 0.1 mm 3 mps 754 mmHg 58%
    12:00 +35°C° 0.1 mm 3 mps 754 mmHg 54%
    13:00 +35°C° 0.1 mm 3 mps 753 mmHg 53%
    14:00 +35°C° 0.1 mm 3 mps 753 mmHg 52%
    15:00 +35°C° 0.1 mm 3 mps 753 mmHg 51%
    16:00 +35°C° 0.5 mm 3 mps 753 mmHg 54%
    17:00 +34°C° 0.5 mm 3 mps 753 mmHg 56%
    18:00 +34°C° 0.5 mm 2 mps 753 mmHg 59%
    19:00 +32°C° 0.6 mm 2 mps 753 mmHg 62%
    20:00 +31°C° 0.6 mm 2 mps 754 mmHg 65%
    21:00 +30°C° 0.6 mm 2 mps 754 mmHg 68%
    22:00 +30°C° 0.4 mm 2 mps 754 mmHg 70%
    23:00 +30°C° 0.4 mm 2 mps 754 mmHg 72%

    24 July, Wednesday

    Time Temperature Precipitation Wind Pressure Humidity
    00:00 +29°C° 0.4 mm 2 mps 754 mmHg 74%
    01:00 +29°C° 0.3 mm 2 mps 754 mmHg 75%
    02:00 +28°C° 0.3 mm 1 mps 754 mmHg 76%
    03:00 +28°C° 0.3 mm 1 mps 754 mmHg 77%
    04:00 +28°C° 0 mm 1 mps 754 mmHg 77%
    05:00 +28°C° 0 mm 1 mps 754 mmHg 77%
    06:00 +28°C° 0 mm 1 mps 755 mmHg 76%
    07:00 +29°C° 0 mm 1 mps 755 mmHg 71%
    08:00 +31°C° 0 mm 1 mps 755 mmHg 67%
    09:00 +32°C° 0 mm 2 mps 755 mmHg 62%
    10:00 +34°C° 0 mm 2 mps 755 mmHg 58%
    11:00 +35°C° 0 mm 2 mps 755 mmHg 53%
    12:00 +36°C° 0 mm 3 mps 755 mmHg 49%
    13:00 +36°C° 0 mm 3 mps 755 mmHg 47%
    14:00 +36°C° 0 mm 3 mps 754 mmHg 45%
    15:00 +37°C° 0 mm 3 mps 754 mmHg 43%
    16:00 +36°C° 0 mm 3 mps 754 mmHg 45%
    17:00 +36°C° 0 mm 3 mps 755 mmHg 47%
    18:00 +35°C° 0 mm 3 mps 755 mmHg 49%
    19:00 +34°C° 0 mm 3 mps 755 mmHg 52%
    20:00 +32°C° 0 mm 2 mps 756 mmHg 56%
    21:00 +32°C° 0 mm 2 mps 756 mmHg 60%
    22:00 +31°C° 0 mm 2 mps 756 mmHg 62%
    23:00 +31°C° 0 mm 1 mps 756 mmHg 64%

    25 July, Thursday

    Time Temperature Precipitation Wind Pressure Humidity
    00:00 +30°C° 0 mm 1 mps 756 mmHg 66%
    01:00 +30°C° 0 mm 1 mps 756 mmHg 68%
    02:00 +29°C° 0 mm 1 mps 756 mmHg 69%
    03:00 +29°C° 0 mm 1 mps 756 mmHg 70%
    04:00 +29°C° 0 mm 1 mps 757 mmHg 70%
    05:00 +29°C° 0 mm 1 mps 757 mmHg 70%
    06:00 +29°C° 0 mm 1 mps 757 mmHg 70%
    07:00 +30°C° 0 mm 1 mps 757 mmHg 65%
    08:00 +32°C° 0 mm 1 mps 757 mmHg 59%
    09:00 +31°C° 0 mm 0 mps 757 mmHg 54%
    10:00 +35°C° 0 mm 1 mps 757 mmHg 49%
    11:00 +36°C° 0 mm 1 mps 757 mmHg 45%
    12:00 +38°C° 0 mm 2 mps 756 mmHg 41%
    13:00 +38°C° 0 mm 2 mps 756 mmHg 40%
    14:00 +38°C° 0 mm 2 mps 756 mmHg 39%
    15:00 +39°C° 0 mm 3 mps 755 mmHg 38%
    16:00 +37°C° 0.1 mm 3 mps 756 mmHg 43%
    17:00 +36°C° 0.1 mm 4 mps 756 mmHg 49%
    18:00 +35°C° 0.1 mm 4 mps 756 mmHg 54%
    19:00 +34°C° 0.1 mm 4 mps 756 mmHg 57%
    20:00 +33°C° 0.1 mm 3 mps 757 mmHg 60%
    21:00 +31°C° 0.1 mm 2 mps 757 mmHg 63%
    22:00 +31°C° 0 mm 2 mps 757 mmHg 65%
    23:00 +30°C° 0 mm 2 mps 757 mmHg 67%

    26 July, Friday

    Time Temperature Precipitation Wind Pressure Humidity
    00:00 +30°C° 0 mm 2 mps 757 mmHg 69%
    01:00 +30°C° 0 mm 2 mps 757 mmHg 71%
    02:00 +29°C° 0 mm 2 mps 757 mmHg 73%
    03:00 +29°C° 0 mm 1 mps 757 mmHg 74%
    04:00 +29°C° 0 mm 1 mps 757 mmHg 74%
    05:00 +29°C° 0 mm 1 mps 757 mmHg 74%
    06:00 +29°C° 0 mm 1 mps 757 mmHg 74%
    07:00 +30°C° 0 mm 1 mps 757 mmHg 68%
    08:00 +31°C° 0 mm 1 mps 757 mmHg 63%
    09:00 +32°C° 0 mm 1 mps 757 mmHg 58%
    10:00 +34°C° 0 mm 2 mps 757 mmHg 55%
    11:00 +35°C° 0 mm 2 mps 757 mmHg 52%
    12:00 +36°C° 0 mm 3 mps 757 mmHg 49%
    13:00 +36°C° 0 mm 3 mps 757 mmHg 49%
    14:00 +36°C° 0 mm 4 mps 756 mmHg 49%
    15:00 +36°C° 0 mm 5 mps 756 mmHg 49%
    16:00 +35°C° 0 mm 4 mps 756 mmHg 52%
    17:00 +34°C° 0 mm 4 mps 756 mmHg 55%
    18:00 +33°C° 0 mm 4 mps 756 mmHg 58%
    19:00 +33°C° 0 mm 4 mps 756 mmHg 61%
    20:00 +31°C° 0 mm 3 mps 757 mmHg 64%
    21:00 +30°C° 0 mm 3 mps 757 mmHg 67%
    22:00 +30°C° 0 mm 2 mps 757 mmHg 68%
    23:00 +30°C° 0 mm 2 mps 757 mmHg 69%
    Show more